Regional Weather Roundup
Issued by NWS

Home | Current Version | Previous Version | Graphics & Text | Print | Product List | Glossary Off
Versions: 1 2 3 4 5 6 7 8 9 10 11 12 13 14 15 16 17 18 19 20 21 22 23 24 25 26 27 28 29 30 31 32 33 34 35 36 37 38 39 40 41 42 43 44 45 46 47 48 49 50

595
ASUS43 KLSX 051607
RWRMO

WEATHER SUMMARY FOR MISSOURI
NATIONAL WEATHER SERVICE SPRINGFIELD MO
1100 AM CDT THU MAY 05 2016

NOTE: "FAIR" INDICATES FEW OR NO CLOUDS BELOW 12,000 FEET WITH NO
       SIGNIFICANT WEATHER AND/OR OBSTRUCTIONS TO VISIBILITY.
       CURRENT SKY AND/OR WEATHER CONDITIONS ARE NOT AVAILABLE FOR
       CHILLICOTHE AND FARMINGTON.

MOZ001>031-035>038-043-044-053-054-051700-
...NORTHERN AND WESTERN MISSOURI...

CITY           SKY/WX    TMP DP  RH WIND       PRES   REMARKS
KANSAS CTY INT PTSUNNY   65  38  36 NE3       30.10R
KANSAS C DTWN  SUNNY     66  36  32 VRB3      30.09S
LEE`S SUMMIT   SUNNY     64  38  38 CALM      30.10R
ST JOSEPH      SUNNY     66  35  31 CALM      30.10R
CHILLICOTHE      N/A     64  39  39 VRB3      30.10S
KIRKSVILLE     SUNNY     60  37  42 N12       30.09S

$$
MOZ066>068-077>081-088>096-101>105-051700-
...SOUTHWEST MISSOURI...

CITY           SKY/WX    TMP DP  RH WIND       PRES   REMARKS
SPRINGFIELD    SUNNY     66  40  38 NW16      30.06S
JOPLIN         SUNNY     68  44  42 NW13      30.09S
BRANSON        SUNNY     66  39  37 N13G20    30.07S

$$
MOZ032>034-039>042-045>050-055>058-069>072-051700-
...CENTRAL MISSOURI...

CITY           SKY/WX    TMP DP  RH WIND       PRES   REMARKS
COLUMBIA       SUNNY     61  36  39 N10       30.07R
JEFFERSON CITY SUNNY     62  32  32 NW10G22   30.06S
ROLLA          SUNNY     60  40  47 NW14      30.04R
SEDALIA        SUNNY     66  39  37 N7        30.10R
WHITEMAN AFB   MOSUNNY   64  38  38 N12       30.08R
WARRENSBURG    SUNNY     64  36  34 N6        30.09R
OSAGE BEACH    SUNNY     64  34  32 N9        30.07S

$$
MOZ051-052-059>065-051700-
...EAST CENTRAL MISSOURI...

CITY           SKY/WX    TMP DP  RH WIND       PRES   REMARKS
ST LOUIS INTL  MOSUNNY   59  38  45 N15       30.03S
SPIRIT OF STL  MOSUNNY   58  42  55 N12       30.04R
ST CHARLES     SUNNY     59  42  53 N14       30.04R

$$
MOZ072>076-082>087-097>100-106>115-051700-
...SOUTH CENTRAL AND SOUTHEAST MISSOURI...

CITY           SKY/WX    TMP DP  RH WIND       PRES   REMARKS
CAPE GIRARDEAU SUNNY     61  38  42 N21G28    29.98R
FARMINGTON     SUNNY     57  37  47 N15G21    30.02R
POPLAR BLUFF   SUNNY     63  38  39 N17       29.98S
WEST PLAINS    SUNNY     64  34  32 NW18G25   30.04S

$$



USA.gov is the U.S. government's official web portal to all federal, state and local government web resources and services.